星链-36698(STARLINK-36698)

导读 | 豆包AI

STARLINK-36698是美国SpaceX星链星座的卫星,于2026年2月7日发射升空。星链计划旨在构建全球卫星互联网,为全球偏远地区、海洋、空中等场景提供高速低延迟网络服务。该卫星加入星座后,将进一步扩充星链网络容量,提升全球覆盖与服务能力,助力星链系统不断完善。

基本信息
目录编号:
67709
目录名称:
STARLINK-36698
国际标识:
2026-025S
轨道中心:
EARTH
卫星名称:
星链-36698
卫星全名:
星链-36698(STARLINK-36698)
卫星状态:
在轨 (已飞行107 天)
发射日期:
2026-02-07 UTC
国别 :
美国 (US)
星等 :
--
轨道信息
数据来源 国际轨道数据
星历时间: 2026-05-25T05:20:59+0800
15小时前
查看轨道信息
半长轴: 6843.686km
偏心率: 0.0001054
轨道倾角: 97.284°
近地点辐角 75.135°
升交点赤经 256.558°
平近点角 285.001°
近地点: 464.827km
远地点: 466.271km
周期: 93.906分钟
每日圈数: 15.334432
详细信息
固有亮度:
5
最大亮度:
2.5
卫星平台:
Starlink V1.0
覆盖范围:
全球
运营商:
太空探索技术公司
运营商所在国:
美国
制造商(研发单位):
太空探索技术公司
制造商所在国:
美国
使用方式:
暂无
卫星简介
Starlink 计划是 SpaceX 推出的全球卫星互联网项目,通过发射低轨道卫星,为全球尤其是偏远地区提供高速、低延迟的互联网服务。自 2019 年起,Starlink 已部署数千颗卫星,旨在缩小全球数字鸿沟,推动互联网普及。该项目还为军事、航空等行业提供通信支持,带来广泛经济效益。
2D轨道图
3D轨道图
轨道高度分析图
轨道倾角分析图
轨道综合分析图
查看轨道综合分析图